Location: Newark
(38.6492°N, 88.9193°W)
Time: 04:06:01
(UTC+00:00)

LightSail 2 - Visible Passes

Search period start: 22 January 2021 00:00
Search period end: 01 February 2021 00:00
Orbit: 684 x 713 km, 24.0° (Epoch: 21 January)

Date Brightness Start Highest point End Pass type
(mag) Time Alt. Az. Time Alt. Az. Time Alt. Az.
24 Jan 7.6 12:26:52 10° SSW 12:29:14 13° S 12:31:37 10° SE visible
25 Jan 7.6 11:25:15 10° S 11:26:57 12° S 11:28:39 10° SSE visible
26 Jan 7.4 12:06:19 10° SSW 12:08:58 14° S 12:11:38 10° SE visible
27 Jan 7.4 11:04:53 11° SSW 11:06:38 13° S 11:09:01 10° SE visible
28 Jan 7.4 11:45:57 10° SW 11:48:38 15° S 11:51:20 10° SSE visible
29 Jan 7.3 10:46:09 14° S 10:46:17 14° S 10:48:56 10° SE visible
29 Jan 7.4 12:28:37 10° SSW 12:30:37 12° S 12:32:39 10° SSE visible
30 Jan 7.3 11:26:04 11° SSW 11:28:15 14° S 11:30:44 10° SSE visible
31 Jan 7.5 10:27:17 13° SSE 10:27:17 13° SSE 10:28:33 10° SSE visible
31 Jan 7.6 12:09:46 10° SSW 12:10:11 10° SSW 12:10:38 10° S visible
